C/2015 V2 ( Johnson )

Japanese version
Home page
Updated on February 13, 2018

---------------------------------------------------------------------

* Profile

Discovery Date November 3, 2015
Magnitude 17.1 mag
Discoverer J. A. Johnson (Catalina Sky Survey)

* Pictures

* Orbital Elements

Epoch 2017 June 16.0 TT = JDT 2457920.5
T 2017 June 12.33934 TT                                 MPCW
q   1.6369839            (2000.0)            P               Q
z  -0.0010458      Peri.  164.89542     -0.49024338     +0.49432066
                   Node    69.84900     -0.85774626     -0.12743969
e   1.0017120      Incl.   49.87640     -0.15470227     -0.85988732
From 5672 observations 2015 Jan. 11-2018 Jan. 18, mean residual 0".5.
     Nongravitational parameters A1 = +2.61, A2 = -0.6911.

* Finding Charts

* Magnitudes Graph

        m1 = 6.0 + 5 log d + 9.0 log r

---------------------------------------------------------------------

The orbital elements are published on M.P.E.C. 2018-B155.
The charts are made with StellaNavigator Ver.8 (AstroArts).
The magnitudes graphs are made with Comet for Windows.

---------------------------------------------------------------------

Copyright(C) Seiichi Yoshida (comet@aerith.net). All rights reserved.